TimeMST,TemperatureF,Dew PointF,Humidity,Sea Level PressureIn,VisibilityMPH,Wind Direction,Wind SpeedMPH,Gust SpeedMPH,PrecipitationIn,Events,Conditions,WindDirDegrees,DateUTC
12:15 AM,42.8,39.2,87,29.99,10.0,NW,11.5,-,N/A,,Overcast,310,2014-02-18 07:15:00
12:35 AM,42.8,41.0,93,30.00,10.0,NW,8.1,-,N/A,,Overcast,310,2014-02-18 07:35:00
12:55 AM,41.0,41.0,100,30.00,10.0,NNW,5.8,-,N/A,,Mostly Cloudy,330,2014-02-18 07:55:00
1:15 AM,41.0,41.0,100,30.02,10.0,WNW,4.6,-,N/A,,Scattered Clouds,300,2014-02-18 08:15:00
1:35 AM,39.2,39.2,100,30.02,10.0,NW,4.6,-,N/A,,Partly Cloudy,320,2014-02-18 08:35:00
1:55 AM,39.2,39.2,100,30.03,10.0,NNW,4.6,-,N/A,,Clear,330,2014-02-18 08:55:00
2:15 AM,39.2,39.2,100,30.04,10.0,WNW,3.5,-,N/A,,Clear,290,2014-02-18 09:15:00
2:35 AM,39.2,39.2,100,30.05,10.0,NNW,6.9,-,N/A,,Partly Cloudy,330,2014-02-18 09:35:00
2:55 AM,39.2,39.2,100,30.06,10.0,Calm,Calm,-,N/A,,Mostly Cloudy,0,2014-02-18 09:55:00
3:15 AM,37.4,37.4,100,30.07,10.0,Calm,Calm,-,N/A,,Overcast,0,2014-02-18 10:15:00
3:35 AM,37.4,37.4,100,30.07,10.0,Calm,Calm,-,N/A,,Overcast,0,2014-02-18 10:35:00
3:55 AM,37.4,37.4,100,30.07,10.0,Calm,Calm,-,N/A,,Mostly Cloudy,0,2014-02-18 10:55:00
4:15 AM,35.6,35.6,100,30.08,10.0,SE,4.6,-,N/A,,Scattered Clouds,140,2014-02-18 11:15:00
4:35 AM,35.6,35.6,100,30.08,10.0,Calm,Calm,-,N/A,,Scattered Clouds,0,2014-02-18 11:35:00
4:55 AM,35.6,35.6,100,30.09,10.0,Calm,Calm,-,N/A,,Mostly Cloudy,0,2014-02-18 11:55:00
5:15 AM,35.6,35.6,100,30.10,10.0,SE,4.6,-,N/A,,Mostly Cloudy,140,2014-02-18 12:15:00
5:35 AM,35.6,35.6,100,30.10,10.0,Calm,Calm,-,N/A,,Overcast,0,2014-02-18 12:35:00
5:55 AM,35.6,35.6,100,30.10,10.0,ESE,3.5,-,N/A,,Overcast,110,2014-02-18 12:55:00
6:15 AM,35.6,35.6,100,30.11,10.0,ESE,5.8,-,N/A,,Overcast,120,2014-02-18 13:15:00
6:35 AM,35.6,35.6,100,30.10,10.0,East,3.5,-,N/A,,Overcast,90,2014-02-18 13:35:00
6:55 AM,35.6,35.6,100,30.11,10.0,SE,9.2,-,N/A,,Overcast,140,2014-02-18 13:55:00
7:15 AM,37.4,37.4,100,30.10,10.0,ESE,4.6,-,N/A,,Overcast,120,2014-02-18 14:15:00
7:35 AM,37.4,37.4,100,30.10,10.0,ESE,4.6,-,N/A,,Overcast,120,2014-02-18 14:35:00
7:55 AM,37.4,37.4,100,30.11,10.0,SE,6.9,-,N/A,,Overcast,130,2014-02-18 14:55:00
8:15 AM,37.4,37.4,100,30.11,10.0,ESE,4.6,-,N/A,,Overcast,120,2014-02-18 15:15:00
8:35 AM,37.4,37.4,100,30.11,10.0,ESE,6.9,-,N/A,,Overcast,120,2014-02-18 15:35:00
8:55 AM,39.2,39.2,100,30.11,10.0,SE,5.8,-,N/A,,Overcast,140,2014-02-18 15:55:00
9:15 AM,39.2,39.2,100,30.11,10.0,ESE,6.9,-,N/A,,Overcast,120,2014-02-18 16:15:00
9:35 AM,39.2,39.2,100,30.10,10.0,SE,6.9,-,N/A,,Overcast,140,2014-02-18 16:35:00
9:55 AM,39.2,39.2,100,30.11,10.0,SE,8.1,-,N/A,,Overcast,140,2014-02-18 16:55:00
10:15 AM,41.0,41.0,100,30.11,10.0,SE,5.8,-,N/A,,Mostly Cloudy,140,2014-02-18 17:15:00
10:35 AM,42.8,41.0,93,30.11,10.0,SE,8.1,-,N/A,,Overcast,140,2014-02-18 17:35:00
10:55 AM,44.6,39.2,81,30.10,10.0,SE,8.1,-,N/A,,Overcast,140,2014-02-18 17:55:00
11:15 AM,44.6,39.2,81,30.11,10.0,SE,8.1,-,N/A,,Overcast,140,2014-02-18 18:15:00
11:35 AM,46.4,37.4,71,30.10,10.0,SE,8.1,-,N/A,,Mostly Cloudy,140,2014-02-18 18:35:00
11:55 AM,46.4,35.6,66,30.09,10.0,SSE,9.2,-,N/A,,Partly Cloudy,150,2014-02-18 18:55:00
12:15 PM,48.2,35.6,62,30.09,10.0,SE,10.4,-,N/A,,Clear,140,2014-02-18 19:15:00
12:35 PM,48.2,35.6,62,30.07,10.0,ESE,10.4,-,N/A,,Clear,120,2014-02-18 19:35:00
12:55 PM,50.0,35.6,58,30.05,10.0,SE,11.5,-,N/A,,Clear,130,2014-02-18 19:55:00
1:15 PM,50.0,35.6,58,30.04,10.0,ESE,11.5,16.1,N/A,,Clear,120,2014-02-18 20:15:00
1:35 PM,51.8,35.6,54,30.03,10.0,SE,8.1,-,N/A,,Clear,130,2014-02-18 20:35:00
1:55 PM,51.8,33.8,50,30.02,10.0,SSE,6.9,-,N/A,,Clear,150,2014-02-18 20:55:00
2:15 PM,51.8,33.8,50,30.01,10.0,SSE,8.1,-,N/A,,Partly Cloudy,150,2014-02-18 21:15:00
2:35 PM,51.8,32.0,47,30.00,10.0,SE,9.2,-,N/A,,Partly Cloudy,140,2014-02-18 21:35:00
2:55 PM,51.8,32.0,47,30.00,10.0,SSE,8.1,-,N/A,,Clear,150,2014-02-18 21:55:00
3:15 PM,51.8,32.0,47,29.99,10.0,SE,12.7,-,N/A,,Partly Cloudy,130,2014-02-18 22:15:00
3:35 PM,50.0,32.0,50,29.98,10.0,SE,9.2,-,N/A,,Scattered Clouds,130,2014-02-18 22:35:00
3:55 PM,50.0,32.0,50,29.96,10.0,ESE,8.1,-,N/A,,Partly Cloudy,110,2014-02-18 22:55:00
4:15 PM,50.0,32.0,50,29.93,10.0,ESE,11.5,17.3,N/A,,Clear,110,2014-02-18 23:15:00
4:35 PM,51.8,32.0,47,29.92,10.0,ESE,11.5,-,N/A,,Clear,120,2014-02-18 23:35:00
4:55 PM,50.0,32.0,50,29.91,10.0,SE,10.4,-,N/A,,Clear,130,2014-02-18 23:55:00
5:15 PM,50.0,32.0,50,29.90,10.0,SE,9.2,-,N/A,,Clear,130,2014-02-19 00:15:00
5:35 PM,50.0,33.8,54,29.90,10.0,SE,10.4,-,N/A,,Clear,130,2014-02-19 00:35:00
5:55 PM,50.0,32.0,50,29.88,10.0,SE,11.5,18.4,N/A,,Clear,130,2014-02-19 00:55:00
6:15 PM,48.2,32.0,54,29.86,10.0,SE,10.4,16.1,N/A,,Partly Cloudy,130,2014-02-19 01:15:00
6:35 PM,48.2,32.0,54,29.86,10.0,SE,11.5,18.4,N/A,,Partly Cloudy,130,2014-02-19 01:35:00
6:55 PM,46.4,33.8,62,29.84,10.0,SSE,13.8,-,N/A,,Mostly Cloudy,150,2014-02-19 01:55:00
7:15 PM,46.4,33.8,62,29.83,10.0,SSE,15.0,20.7,N/A,,Overcast,150,2014-02-19 02:15:00
7:35 PM,46.4,32.0,57,29.82,10.0,SE,13.8,20.7,N/A,,Overcast,140,2014-02-19 02:35:00
7:55 PM,46.4,32.0,57,29.81,10.0,SE,15.0,21.9,N/A,,Overcast,140,2014-02-19 02:55:00
8:15 PM,46.4,32.0,57,29.81,10.0,SE,12.7,21.9,N/A,,Overcast,140,2014-02-19 03:15:00
8:35 PM,46.4,32.0,57,29.79,10.0,SE,16.1,25.3,N/A,,Overcast,140,2014-02-19 03:35:00
8:55 PM,46.4,32.0,57,29.79,10.0,SE,15.0,24.2,N/A,,Overcast,130,2014-02-19 03:55:00
9:15 PM,46.4,32.0,57,29.79,10.0,SE,11.5,19.6,N/A,,Overcast,140,2014-02-19 04:15:00
9:35 PM,46.4,32.0,57,29.78,10.0,SE,11.5,-,N/A,,Overcast,140,2014-02-19 04:35:00
9:55 PM,46.4,32.0,57,29.77,10.0,SE,12.7,19.6,N/A,,Overcast,140,2014-02-19 04:55:00
10:35 PM,46.4,32.0,57,29.75,10.0,SE,12.7,-,N/A,,Overcast,130,2014-02-19 05:35:00
10:55 PM,46.4,32.0,57,29.74,10.0,SE,9.2,-,N/A,,Overcast,130,2014-02-19 05:55:00
11:15 PM,46.4,32.0,57,29.73,10.0,SE,8.1,-,N/A,,Overcast,130,2014-02-19 06:15:00
11:35 PM,44.6,32.0,61,29.73,10.0,SE,6.9,-,N/A,,Overcast,130,2014-02-19 06:35:00
11:55 PM,44.6,32.0,61,29.73,10.0,SSE,4.6,-,N/A,,Overcast,150,2014-02-19 06:55:00